Location: Härggis
(46.9540°N, 8.4897°E)
Time: 00:00:13
(UTC+00:00)

Cosmos 1328 - Pass Details

Date: 27 May 2022
Orbit: 524 x 551 km, 82.5° (Epoch: 02 July)

Event Time Altitude Azimuth Distance (km) Brightness Sun altitude
Exits shadow 02:45:38 - 203° (SSW) 1,933 6.0 -8.0°
Reaches altitude 10° 02:45:59 10° 204° (SSW) 1,791 5.9 -7.9°
Maximum altitude 02:49:51 54° 282° (WNW) 668 4.0 -7.4°
Drops below altitude 10° 02:53:47 10° 0° (N) 1,823 7.1 -6.9°
Sets 02:56:01 0° 6° (N) 2,726 8.2 -6.6°
